TimeCST,TemperatureF,Dew PointF,Humidity,Sea Level PressureIn,VisibilityMPH,Wind Direction,Wind SpeedMPH,Gust SpeedMPH,PrecipitationIn,Events,Conditions,WindDirDegrees,DateUTC
12:52 AM,60.1,54.0,80,30.18,10.0,East,5.8,-,N/A,,Clear,100,2012-11-19 06:52:00
1:52 AM,62.1,54.0,75,30.19,10.0,Calm,Calm,-,N/A,,Mostly Cloudy,0,2012-11-19 07:52:00
2:52 AM,60.1,54.0,80,30.17,10.0,East,3.5,-,N/A,,Scattered Clouds,90,2012-11-19 08:52:00
3:52 AM,60.1,54.0,80,30.16,10.0,East,3.5,-,N/A,,Clear,100,2012-11-19 09:52:00
4:52 AM,59.0,54.0,83,30.15,10.0,East,5.8,-,N/A,,Clear,100,2012-11-19 10:52:00
5:52 AM,59.0,55.0,87,30.16,10.0,East,4.6,-,N/A,,Mostly Cloudy,80,2012-11-19 11:52:00
6:52 AM,60.1,55.9,86,30.17,10.0,East,5.8,-,N/A,,Scattered Clouds,80,2012-11-19 12:52:00
7:52 AM,64.9,59.0,81,30.19,10.0,East,4.6,-,N/A,,Mostly Cloudy,90,2012-11-19 13:52:00
8:52 AM,71.1,59.0,66,30.21,10.0,ESE,5.8,-,N/A,,Overcast,110,2012-11-19 14:52:00
9:52 AM,75.9,59.0,56,30.22,10.0,East,10.4,-,N/A,,Partly Cloudy,100,2012-11-19 15:52:00
10:52 AM,78.1,59.0,52,30.21,10.0,ESE,8.1,-,N/A,,Overcast,120,2012-11-19 16:52:00
11:52 AM,80.1,57.9,47,30.19,10.0,Variable,4.6,-,N/A,,Scattered Clouds,0,2012-11-19 17:52:00
12:52 PM,79.0,57.9,48,30.16,10.0,Variable,4.6,-,N/A,,Overcast,0,2012-11-19 18:52:00
1:52 PM,79.0,59.0,50,30.13,10.0,ENE,8.1,-,N/A,,Overcast,70,2012-11-19 19:52:00
2:52 PM,79.0,59.0,50,30.12,10.0,East,12.7,-,N/A,,Clear,90,2012-11-19 20:52:00
3:52 PM,80.1,57.9,47,30.11,10.0,East,11.5,19.6,N/A,,Partly Cloudy,100,2012-11-19 21:52:00
4:52 PM,75.9,57.0,52,30.12,10.0,East,13.8,-,N/A,,Clear,90,2012-11-19 22:52:00
5:52 PM,72.0,57.0,59,30.14,10.0,ESE,11.5,-,N/A,,Clear,110,2012-11-19 23:52:00
6:52 PM,69.1,57.0,65,30.15,10.0,ESE,8.1,-,N/A,,Clear,110,2012-11-20 00:52:00
7:52 PM,66.0,57.0,73,30.17,10.0,ESE,4.6,-,N/A,,Clear,110,2012-11-20 01:52:00
8:52 PM,64.0,55.9,75,30.18,10.0,East,4.6,-,N/A,,Clear,80,2012-11-20 02:52:00
9:52 PM,63.0,55.9,78,30.17,10.0,Calm,Calm,-,N/A,,Clear,0,2012-11-20 03:52:00
10:52 PM,61.0,55.9,83,30.17,10.0,Calm,Calm,-,N/A,,Clear,0,2012-11-20 04:52:00
11:52 PM,62.1,57.9,86,30.16,10.0,Calm,Calm,-,N/A,,Clear,0,2012-11-20 05:52:00